IU2RPR-3 Weather Reports


time (UTC)temp
C
wind
direction
speed
KPH
gust
KPH
rain 1hr
cm
rain 24hr
cm
rain mn
cm
humidity
%
barometer
mb
20260507191606 18 0.0 0.0 0.00 0.00 0.00 57 1015.5
20260507184602 21 0.0 0.0 0.00 0.00 0.00 52 1015.0
20260507181557 24 0.0 0.0 0.00 0.00 0.00 43 1014.4
20260507174553 31 0.0 0.0 0.00 0.00 0.00 33 1013.7
20260507171549 30 0.0 0.0 0.00 0.00 0.00 34 1013.5
20260507164544 30 0.0 0.0 0.00 0.00 0.00 34 1013.3
20260507161540 28 0.0 0.0 0.00 0.00 0.00 35 1013.4
20260507154536 27 0.0 0.0 0.00 0.00 0.00 38 1013.5
20260507151531 23 0.0 0.0 0.00 0.00 0.00 44 1013.8
20260507144527 24 0.0 0.0 0.00 0.00 0.00 45 1013.8
20260507141523 23 0.0 0.0 0.00 0.00 0.00 43 1013.9
20260507134519 21 0.0 0.0 0.00 0.00 0.00 49 1014.3
20260507131514 21 0.0 0.0 0.00 0.00 0.00 49 1014.6
20260507124510 21 0.0 0.0 0.00 0.00 0.00 48 1014.8
20260507121506 21 0.0 0.0 0.00 0.00 0.00 54 1014.9
20260507114502 20 0.0 0.0 0.00 0.00 0.00 56 1015.2
20260507111457 20 0.0 0.0 0.00 0.00 0.00 58 1015.4
20260507104453 18 0.0 0.0 0.00 0.00 0.00 61 1015.8
20260507101449 17 0.0 0.0 0.00 0.00 0.00 62 1016.1
20260507094444 17 0.0 0.0 0.00 0.00 0.00 67 1016.1
20260507091440 17 0.0 0.0 0.00 0.00 0.00 64 1016.2
20260507084436 16 0.0 0.0 0.00 0.00 0.00 67 1016.3
20260507081432 16 0.0 0.0 0.00 0.00 0.00 66 1016.1
20260507074427 15 0.0 0.0 0.00 0.00 0.00 74 1015.8
20260507071423 15 0.0 0.0 0.00 0.00 0.00 77 1015.8
20260507064419 14 0.0 0.0 0.00 0.00 0.00 79 1015.6
20260507061414 13 0.0 0.0 0.00 0.00 0.00 80 1015.3
20260507054410 13 0.0 0.0 0.00 0.00 0.00 83 1015.4
20260507051406 12 0.0 0.0 0.00 0.00 0.00 83 1015.1
20260507044401 12 0.0 0.0 0.00 0.00 0.00 79 1014.6
20260507041357 12 0.0 0.0 0.00 0.00 0.00 80 1014.4
20260507034353 12 0.0 0.0 0.00 0.00 0.00 84 1014.4
20260507031349 11 0.0 0.0 0.00 0.00 0.00 87 1014.5
20260507024344 11 0.0 0.0 0.00 0.00 0.00 91 1014.5
20260507021340 11 0.0 0.0 0.00 0.00 0.00 91 1014.5
20260507014336 11 0.0 0.0 0.00 0.00 0.00 88 1014.2
20260507011331 12 0.0 0.0 0.00 0.00 0.00 86 1014.1
20260507004327 12 0.0 0.0 0.00 0.00 0.00 88 1014.0
20260507001323 12 0.0 0.0 0.00 0.00 0.00 86 1014.1
20260506234319 12 0.0 0.0 0.00 0.00 0.00 87 1014.0
20260506231314 12 0.0 0.0 0.00 0.00 0.00 87 1013.9
20260506224310 12 0.0 0.0 0.00 0.00 0.00 85 1013.8
20260506221306 12 0.0 0.0 0.00 0.00 0.00 87 1013.8
20260506214301 12 0.0 0.0 0.00 0.00 0.00 86 1013.6
20260506211257 12 0.0 0.0 0.00 0.00 0.00 81 1013.8
20260506204253 12 0.0 0.0 0.00 0.00 0.00 79 1013.6
20260506201249 12 0.0 0.0 0.00 0.00 0.00 78 1013.5
20260506194244 12 0.0 0.0 0.00 0.00 0.00 80 1013.3